Location: Lourdes
(43.1000°N, 0.0500°W)
Time: 05:05:21
(UTC+00:00)

USA 238 - Pass Details

Date: 30 November 2020
Orbit: 996 x 1216 km, 63.4° (Epoch: 22 January)

Event Time Altitude Azimuth Distance (km) Brightness Sun altitude
Rises 17:44:33 0° 183° (S) 3,704 6.8 -13.9°
Reaches altitude 10° 17:47:21 10° 174° (S) 2,770 6.0 -14.4°
Maximum altitude 17:53:01 33° 113° (ESE) 1,658 4.3 -15.4°
Enters shadow 17:56:01 23° 70° (ENE) 2,058 4.6 -15.9°
